TimeCEST,TemperatureF,Dew PointF,Humidity,Sea Level PressureIn,VisibilityMPH,Wind Direction,Wind SpeedMPH,Gust SpeedMPH,PrecipitationIn,Events,Conditions,WindDirDegrees,DateUTC
12:55 AM,32.0,26.6,80,30.36,0.5,NE,8.1,-,N/A,Fog,Fog,50,2013-07-03 22:55:00
1:55 AM,30.2,24.8,80,30.36,0.5,North,17.3,-,N/A,Fog,Fog,10,2013-07-03 23:55:00
2:00 AM,31,25,69,,0,North,17.3,,,Fog,Heavy Fog,10,2013-07-04 00:00:00
2:55 AM,30.2,24.8,80,30.33,6.2,North,23.0,-,N/A,,Scattered Clouds,10,2013-07-04 00:55:00
3:55 AM,30.2,28.4,93,30.36,6.2,ENE,12.7,-,N/A,,Mostly Cloudy,60,2013-07-04 01:55:00
4:55 AM,30.2,26.6,86,30.36,6.2,NE,8.1,-,N/A,,Mostly Cloudy,50,2013-07-04 02:55:00
5:55 AM,30.2,28.4,93,30.36,6.2,ENE,16.1,-,N/A,,Partly Cloudy,60,2013-07-04 03:55:00
6:55 AM,30.2,26.6,86,30.36,6.2,ENE,11.5,-,N/A,,Partly Cloudy,60,2013-07-04 04:55:00
7:55 AM,35.6,21.2,56,30.36,-9999.0,South,4.6,-,N/A,,Clear,180,2013-07-04 05:55:00
8:00 AM,36,22,43,,31,South,4.6,,,,Partly Cloudy,180,2013-07-04 06:00:00
8:55 AM,37.4,19.4,48,30.39,-9999.0,Variable,1.2,-,N/A,,Clear,0,2013-07-04 06:55:00
9:55 AM,41.0,24.8,53,30.39,6.2,SW,5.8,-,N/A,,Partly Cloudy,220,2013-07-04 07:55:00
10:55 AM,42.8,23.0,46,30.42,6.2,SSW,4.6,-,N/A,,Partly Cloudy,210,2013-07-04 08:55:00
11:00 AM,43,23,32,,12,SSW,4.6,,,,Scattered Clouds,210,2013-07-04 09:00:00
11:55 AM,42.8,32.0,66,30.45,0.7,SW,4.6,-,N/A,,Scattered Clouds,220,2013-07-04 09:55:00
12:55 PM,41.0,28.4,61,30.45,6.2,Variable,3.5,-,N/A,,Scattered Clouds,0,2013-07-04 10:55:00
1:55 PM,42.8,26.6,53,30.48,6.2,Variable,2.3,-,N/A,,Scattered Clouds,0,2013-07-04 11:55:00
2:00 PM,42,27,43,,9,,2.3,,,,Partly Cloudy,,2013-07-04 12:00:00
2:55 PM,42.8,28.4,57,30.48,6.2,Variable,3.5,-,N/A,,Scattered Clouds,0,2013-07-04 12:55:00
3:55 PM,42.8,28.4,57,30.51,6.2,Variable,2.3,-,N/A,,Scattered Clouds,0,2013-07-04 13:55:00
4:55 PM,44.6,30.2,57,30.51,6.2,Variable,2.3,-,N/A,,Scattered Clouds,0,2013-07-04 14:55:00
5:00 PM,44,30,45,,9,,2.3,,,,Partly Cloudy,,2013-07-04 15:00:00
5:55 PM,39.2,32.0,75,30.51,6.2,NE,6.9,-,N/A,,Scattered Clouds,40,2013-07-04 15:55:00
6:55 PM,37.4,33.8,87,30.54,6.2,NE,10.4,-,N/A,,Scattered Clouds,40,2013-07-04 16:55:00
7:55 PM,35.6,33.8,93,30.54,6.2,ENE,10.4,-,N/A,,Partly Cloudy,60,2013-07-04 17:55:00
8:00 PM,36,33,85,,7,ENE,10.4,,,,Scattered Clouds,60,2013-07-04 18:00:00
8:55 PM,35.6,32.0,87,30.57,6.2,NE,11.5,-,N/A,,Partly Cloudy,50,2013-07-04 18:55:00
9:55 PM,35.6,33.8,93,30.57,-9999.0,NE,5.8,-,N/A,,Clear,40,2013-07-04 19:55:00
10:55 PM,33.8,33.8,100,30.60,-9999.0,SW,4.6,-,N/A,,Clear,230,2013-07-04 20:55:00
11:00 PM,34,34,98,,6,SW,4.6,,,,,230,2013-07-04 21:00:00
11:55 PM,35.6,26.6,70,30.60,-9999.0,Calm,Calm,-,N/A,,Clear,360,2013-07-04 21:55:00